Home > Weather > Tuba City > Past weeks

Flag for USA Past Weather in Tuba City, Arizona, USA — Yesterday and Last 2 Weeks

Now
70 °F

Scattered clouds.


Feels Like: 74 °F
Forecast: 46 / 82 °F
Wind: 10 mph from North

Location: Grand Canyon National Park Airport

Current Time: May 30, 2016 at 4:24:55 PM

Latest Report: May 30, 2016 at 3:54 PM


Visibility: 10 mi

Pressure: 29.93 "Hg (25.12 "Hg at 1510m altitude)

Humidity: 18%

Dew Point: 25 °F

Location of Tuba CityLocation

Past Weather in Tuba City — Graph

°F

Tuba City Temperature Yesterday

Maximum temperature yesterday: 78 °F (at 3:54 PM)
Minimum temperature yesterday: 31 °F (at 5:54 AM)
Average temperature yesterday: 58 °F

High & Low Weather Summary for the Past Weeks

 TemperatureHumidityPressure
High78 °F (May 29, 3:54 PM)89% (May 19, 1:54 AM)30.02 "Hg (May 19, 1:54 AM)
Low26 °F (May 25, 5:54 AM)8% (May 29, 3:54 PM)29.64 "Hg (May 20, 2:54 PM)
Average53 °F40%29.85 "Hg
* Reported May 15 2:54 PM — May 30 2:54 PM, Tuba City, Weather by CustomWeather, © 2016

Note: Actual official high and low records may vary slightly from our data, if they occured in-between our weather recording intervals... More about our weather records

Advertising

Tuba City Weather History for the Previous 24 Hours

Scroll right to see more
 ConditionsComfort  
Time TempWeatherWind HumidityBarometerVisibility
2:54 PM
Mon, May 30
72 °FPartly sunny.8 mph16%29.93 "Hg10 mi
1:54 PM70 °FScattered clouds.7 mph16%29.94 "Hg10 mi
12:54 PM70 °FPartly sunny.6 mph16%29.93 "Hg10 mi
11:54 AM71 °FPassing clouds.6 mph15%29.92 "Hg10 mi
10:54 AM68 °FPassing clouds.10 mph15%29.93 "Hg10 mi
9:54 AM68 °FSunny.6 mph13%29.92 "Hg10 mi
8:54 AM66 °FSunny.No wind17%29.90 "Hg10 mi
7:54 AM49 °FSunny.No wind35%29.93 "Hg10 mi
6:54 AM35 °FSunny.3 mph48%29.97 "Hg10 mi
5:54 AM31 °FClear.3 mph52%29.98 "Hg10 mi
4:54 AM32 °FClear.No wind50%29.97 "Hg10 mi
3:54 AM33 °FClear.3 mph48%29.96 "Hg10 mi
2:54 AM36 °FClear.No wind42%29.95 "Hg10 mi
1:54 AM38 °FClear.No wind41%29.95 "Hg10 mi
12:54 AM41 °FClear.No wind36%29.96 "Hg10 mi
11:54 PM
Sun, May 29
46 °FClear.3 mph31%29.95 "Hg10 mi
10:54 PM50 °FClear.3 mph25%29.94 "Hg10 mi
9:54 PM56 °FClear.3 mph17%29.90 "Hg10 mi
8:54 PM62 °FClear.5 mph13%29.87 "Hg10 mi
7:54 PM71 °FSunny.12 mph9%29.88 "Hg10 mi
6:54 PM74 °FSunny.12 mph10%29.91 "Hg10 mi
5:54 PM76 °FSunny.14 mph10%29.92 "Hg10 mi
4:54 PM77 °FSunny.10 mph8%29.92 "Hg10 mi
Weather by CustomWeather, © 2016

See weather overviewHow to use our weather pages